Find Starlink 32121

NORAD ID: 60264 Int'l Des: 2024-131 Owner: SPXS Country: US Constellation: starlink operational
LEOCIRCULAR

当前视图

正在加载3D地球...

About Starlink 32121

Starlink 32121 (NORAD 60264) is a starlink constellation satellite (v2 mini) launched Jul 27, 2024 by SPXS of US. It operates in LEO, CIRCULAR orbit with a mass of 730.00 kg.

即将过境

Passes for default location (London). Set your location on the main map for personalized predictions.

高度历史

Loading altitude history...

两行轨道根数

1 60264U 24131K 26237.29489951 .00001325 00000-0 54461-4 0 9991
2 60264 53.1623 348.5130 0002934 103.0792 257.0538 15.31711249117591
Epoch: Aug 25, 2026 • Age: 6 hours

当前状态

高度 485.0 km
远地点 / 近地点 N/A
速度 7.62 km/s
星下点 -39.59°S, 39.85°E
发射日期 Jul 27, 2024
运行时间 2 years
类型 internet

技术详情

分类 Payload
质量 730.00 kg
干质量 700.00 kg
总质量 730.00 kg
长度 0.30 m
直径 4.10 m
跨度 29.00 m
形状 Box + pan
制造商 SPXS
平台类型 Starlink V2M
阶段状态 In Orbit
所有者/国家 SPXS/US

Most Searched